Location: Gleizolles
(44.4833°N, 6.7667°E)
Time: 21:01:33
(UTC+00:00)

A-11 Canister half - Pass Details

Date: 27 June 2024
Orbit: 1524 x 1684 km, 47.3° (Epoch: 18 July)

Event Time Altitude Azimuth Distance (km) Brightness Sun altitude
Rises 15:59:17 0° 290° (WNW) 4,698 12.5 33.1°
Reaches altitude 10° 16:02:21 10° 290° (WNW) 3,703 12.3 32.5°
Maximum altitude 16:11:39 78° 206° (SSW) 1,554 9.7 30.9°
Drops below altitude 10° 16:20:57 10° 122° (ESE) 3,705 10.6 29.2°
Sets 16:24:00 0° 121° (ESE) 4,700 11.1 28.7°
